Regional Weather Roundup
Issued by NWS

Home | Current Version | Previous Version | Graphics & Text | Print | Product List | Glossary Off
Versions: 1 2 3 4 5 6 7 8 9 10 11 12 13 14 15 16 17 18 19 20 21 22 23 24 25 26 27 28 29 30 31 32 33 34 35 36 37 38 39 40 41 42 43 44 45 46 47 48 49 50

000
ASUS43 KDTX 281010
RWRMI
MICHIGAN HOURLY REGIONAL WEATHER ROUNDUP
NATIONAL WEATHER SERVICE DETROIT/PONTIAC MI
600 AM EDT TUE JUL 28 2015

NOTE: "FAIR" INDICATES FEW OR NO CLOUDS BELOW 12,000 FEET WITH NO
SIGNIFICANT WEATHER AND/OR OBSTRUCTION TO VISIBILITY.

MIZ047>049-052>055-059>063-066>070-074>076-081>083-281100-
SOUTHEAST LOWER MICHIGAN

CITY           SKY/WX    TMP DP  RH WIND       PRES   REMARKS
ADRIAN         CLEAR     61  59  93 NE3       30.04R
ALMA           CLEAR     61  61  99 CALM      30.03S
ANN ARBOR      CLEAR     60  59  96 CALM      30.03S FOG
BAD AXE        CLEAR     61  60  97 CALM      30.04S
CARO           CLEAR     61  60  99 CALM      30.03R FOG
DETROIT CITY   CLEAR     69  63  81 CALM      30.03R
DETROIT        PTCLDY    70  63  78 CALM      30.03R
FLINT          CLEAR     66  62  87 S5        30.04R
GROSSE ILE     CLEAR     66  64  94 CALM      30.02R
HILLSDALE      CLEAR     61  61 100 CALM      30.05S
HOWELL         CLEAR     64  62  94 CALM      30.04S

CITY           SKY/WX    TMP DP  RH WIND       PRES   REMARKS
JACKSON        CLEAR     62  60  93 CALM      30.04S FOG
LAMBERTVILLE   CLEAR     64  62  92 CALM      30.03S FOG
LANSING        CLEAR     63  61  93 CALM      30.05R
LAPEER         FAIR      59  59 100 CALM      30.05R
MASON          CLEAR     60  59  97 CALM      30.05S FOG
MONROE         PTCLDY    64  63  97 CALM      30.02S
MT. CLEMENS    CLEAR     64  62  91 N5        30.01R
PONTIAC        CLEAR     66  64  93 CALM      30.04R
PORT HOPE        N/A     64  63  96 CALM      30.01S
PORT HURON     FOG       57  57 100 CALM      30.03S VSB 3/4
TRI CITIES     CLEAR     68  64  87 W5        30.03S
MIDLAND        FAIR      63  62  96 CALM      30.02S
TROY           CLEAR     69  63  81 CALM      30.05R
SAGINAW HB     CLEAR     64  61  88 CALM      30.02S
$$
MIZ043>046-050>051-056>058-064>065-071>073-077>080-281100-
SOUTHWEST LOWER MICHIGAN

CITY           SKY/WX    TMP DP  RH WIND       PRES   REMARKS
BATTLE CREEK   CLEAR     65  62  90 NE3       30.05S
BENTON HARBOR  CLEAR     63  61  93 E3        30.01S
BIG RAPIDS     CLEAR     62  59  92 CALM      30.04R
COLDWATER      CLEAR     60  59  98 CALM      30.03S FOG
FREMONT        FAIR      65  63  93 E3        30.02S
HOLLAND        CLEAR     64  62  93 CALM      30.03S FOG
GRAND RAPIDS   CLEAR     66  63  90 CALM      30.03S
IONIA          FAIR      63  61  93 CALM      30.03S
KALAMAZOO      CLEAR     64  60  87 CALM      30.04S
LUDINGTON      CLEAR     61  58  92 CALM      30.02R
MARSHALL       CLEAR     60  59  96 CALM      30.04R
MOUNT PLEASANT CLEAR     64  62  96 CALM      30.02S FOG
MUSKEGON       PTCLDY    64  60  87 CALM      30.03R
SOUTH HAVEN    CLEAR     64  62  94 CALM      30.02S
$$
MIZ016>042-281100-
NORTHERN LOWER MICHIGAN

CITY           SKY/WX    TMP DP  RH WIND       PRES   REMARKS
ALPENA         CLEAR     62  60  93 CALM      30.03S
BEAVER ISLAND  PTCLDY    59  58  95 CALM      30.03R
BELLAIRE       PTCLDY    57  56  96 CALM      30.03S FOG
CADILLAC       CLEAR     57  56  94 CALM      30.05S
CHARLEVOIX     PTCLDY    64  61  90 CALM      30.05S
FRANKFORT      CLEAR     60  57  91 CALM      30.02R
GAYLORD        CLEAR     61  59  93 CALM      30.06S
GRAYLING       FOG       55  54  97 CALM      30.06S VSB 1/4
HARBOR SPRINGS CLEAR     61  59  92 NE5       30.03S
HOUGHTON LAKE  CLEAR     58  57  97 E5        30.05S
MANISTEE       CLEAR     61  55  82 E3        30.02R
OSCODA         CLEAR     60  59  94 NE5       30.02S
PELLSTON       CLEAR     56  55  97 NW3       30.03F
ROGERS CITY    CLEAR     65  61  87 CALM      30.03F
TRAVERSE CITY  PTCLDY    62  58  86 CALM      30.01S
$$
MIZ007>008-015-281100-
EASTERN UPPER MICHIGAN

CITY           SKY/WX    TMP DP  RH WIND       PRES   REMARKS
KINROSS        CLEAR     64  63  94 W3        30.04R
MACKINAC ISLAN CLEAR     66  60  83 W5        30.03R
MUNISING         N/A     65  60  84 CALM      30.00R
$$
MIZ004>006-011>014-085-281100-
CENTRAL UPPER MICHIGAN

CITY           SKY/WX    TMP DP  RH WIND       PRES   REMARKS
MANISTIQUE     FOG       55  55 100 CALM      30.01R VSB 1/4
ESCANABA       CLEAR     55  54  94 CALM      30.00R
MENOMINEE      CLEAR     63  57  82 CALM      30.00R
SAWYER-GWINN   CLEAR     62  59  90 CALM      30.02R
$$
MIZ001>003-009>011-084-281100-
WESTERN UPPER MICHIGAN

CITY           SKY/WX    TMP DP  RH WIND       PRES   REMARKS
IRON MOUNTAIN  FOG       57  56  96 CALM      30.00S VSB 3/4
HOUGHTON       CLEAR     62  60  93 CALM      29.96S
COPPER HARBOR    N/A     69  63  81 CALM      29.94F
IRONWOOD       CLEAR     70  63  78 SE8       29.92F
$$

ABBREVIATIONS USED IN REMARKS
   TC - TEMPERATURE IN CELSIUS
  WCI - WIND CHILL INDEX
   HX - HEAT INDEX
  VSB - VISIBILITY



USA.gov is the U.S. government's official web portal to all federal, state and local government web resources and services.